GHGSAT-C7 (56209 NORAD) Tracking and Keplerian Element Data

This shows tracking and keplerian element data for the satellite.

Feedback or suggestion? Click here.




ElementValue
Catalog56209
NameGHGSAT-C7
Epoch Orbit383
Epoch Day126.50717654
Epoch Year2023
RAAN22.0619
Inclination97.4093
Eccentricity0.0014496
Argument of Perigee146.1945
Mean Anonmoly338.77
Mean Motion15.22858753
Decay Rate4.495E-05
L11 56209U 23054AH 23126.50717654 .00004495 00000+0 19444-3 0 9991
L22 56209 97.4093 22.0619 0014496 146.1945 338.7700 15.22858753 3838



Live tracking and technical data element details for GHGSAT-C7 (NORAD 56209). GHGSAT-C7 can be tracked NOW for your location showing map with azimuth and elevation plus other details from your city location.







IsCatalogInMostPopularTable: catalog: 56209, numindb: 8
Update: records affected: 1



GetName: 56209 GHGSAT-C7

Hit Count: updated at: Wed, 07 Jun 2023 08:54:26 GMT